Location: Deuil
(48.9767°N, 2.3272°E)
Time: 02:35:43
(UTC+00:00)

Cosmos 2360 Rocket - Pass Details

Date: 27 May 2022
Orbit: 832 x 846 km, 71.0° (Epoch: 03 July)

Event Time Altitude Azimuth Distance (km) Brightness Sun altitude
Exits shadow 23:06:27 17° 223° (SW) 2,012 3.8 -19.0°
Maximum altitude 23:10:50 63° 302° (WNW) 934 2.5 -19.1°
Drops below altitude 10° 23:16:27 10° 24° (NNE) 2,469 5.5 -19.3°
Sets 23:18:57 0° 27° (NNE) 3,410 6.3 -19.3°
